Content
SEND FEEDBACK

Daily
Averages
Monthly
Summary
China

KASHI, CHINA


Home > Asia > China
Elevation: 4236 feet     Latitude: 39 28N     Longitude: 075 58E

WEATHER
 
SELECT A DAY
Number of Records: 109,497;   Date Range: 7/6/03 - 8/31/14
 
SHARE

PRINT THIS DATA

[ ← Previous Day ]
WEATHER ALMANAC - MARCH 29, 2013
[ Next Day → ]
[ °C ]   °F
Weather ElementAverageHighLow
Temperature63.7 °F78 °F (5:00 pm)46 °F (8:00 am)
Dewpoint16.4 °F29 °F (2:00 am)12.2 °F (12:00 pm)
Humidity15.9 %40 % (8:00 am)4 % (5:00 pm)
Barometer29.92 in30.01 in (12:30 am)29.73 in (5:00 pm)
Wind Speed8.1 mph15.7 mph (3:30 am)
Weather ElementAverage
Visibility6.6 mi
Wind DirectionWSW (250.6 °)

Weather ElementTotal
Precipitation---
Heating Degree Days3 (Base 65)
Growing Degree Days12 (Base 50)
Averaged from 37 records on March 29, 2013
WEATHER CONDITIONS BREAKOUT
WIND DIRECTION BREAKOUT
WEATHER BY HOUR - MARCH 29, 2013
[ °C ]   °F
Local TimeTemperatureDewpointHumidityBarometerVisibilityWind DirectionWind SpeedGust SpeedPrecipitationEventsConditions
12:30 AM59.0 °F17.6 °F20 %30.01 in5.6 miNNW (340°)8.9 mph
1:00 AM59.0 °F15.8 °F19 %29.98 in5.6 miNNW (330°)8.9 mph
1:30 AM59.0 °F15.8 °F19 %29.98 in5.6 miNNW (330°)11.2 mph
2:00 AM52.0 °F29.0 °F29 %29.85 in9.0 miWNW (290°)2.2 mphClear
2:00 AM59.0 °F15.8 °F19 %29.98 in5.6 miNNW (330°)11.2 mph
2:30 AM59.0 °F15.8 °F19 %29.98 inNNW (330°)13.4 mphClear
3:00 AM59.0 °F14.0 °F17 %29.98 inNNW (330°)13.4 mphClear
3:30 AM59.0 °F15.8 °F19 %29.98 inNNW (330°)15.7 mphClear
4:00 AM59.0 °F15.8 °F19 %29.98 inNNW (330°)13.4 mphClear
4:30 AM59.0 °F15.8 °F19 %29.95 inNNW (330°)13.4 mphClear
5:00 AM59.0 °F15.8 °F19 %29.95 inNNW (330°)13.4 mphClear
5:30 AM57.2 °F15.8 °F20 %29.95 inNNW (330°)13.4 mphClear
6:00 AM57.2 °F15.8 °F20 %29.95 inNNW (330°)11.2 mphClear
7:00 AM57.2 °F15.8 °F20 %29.95 inNNW (330°)11.2 mphClear
8:00 AM46.0 °F29.0 °F40 %29.85 in9.0 miCalmClear
8:00 AM55.4 °F15.8 °F21 %29.95 inNW (310°)8.9 mphClear
9:00 AM55.4 °F14.0 °F20 %29.95 inNNW (330°)11.2 mphClear
10:00 AM57.2 °F15.8 °F20 %29.98 inNNW (330°)11.2 mphClear
11:00 AM62.6 °F14.0 °F15 %29.98 inNNW (330°)11.2 mphClear
11:00 AM59.0 °F21.0 °F12 %29.86 in7.0 miWest (270°)4.5 mphClear
12:00 PM68.0 °F12.2 °F12 %29.98 inNNW (330°)8.9 mphClear
1:00 PM69.8 °F12.2 °F11 %29.98 in5.6 miVariable2.2 mph
2:00 PM73.0 °F16.0 °F5 %29.82 in9.0 miSW (220°)2.2 mphClear
2:00 PM71.6 °F14.0 °F11 %29.95 in5.6 miSSW (210°)4.5 mph
3:00 PM73.4 °F14.0 °F10 %29.95 in5.6 miVariable4.5 mph
4:00 PM73.4 °F12.2 °F10 %29.92 in5.6 miSW (220°)6.7 mph
5:00 PM78.0 °F14.0 °F4 %29.73 in12.0 miWSW (250°)2.2 mphClear
5:00 PM75.2 °F12.2 °F9 %29.89 in5.6 miWest (260°)6.7 mph
6:00 PM75.2 °F15.8 °F11 %29.86 in5.6 miSE (140°)8.9 mph
7:00 PM75.2 °F14.0 °F10 %29.86 in5.6 miSSE (150°)8.9 mph
8:00 PM75.0 °F17.0 °F5 %29.73 in12.0 miSE (140°)6.7 mphClear
8:00 PM73.4 °F15.8 °F11 %29.86 in5.6 miSSE (160°)6.7 mph
9:00 PM69.8 °F17.6 °F14 %29.89 in5.6 miSE (130°)4.5 mph
10:00 PM66.2 °F15.8 °F14 %29.89 in3.7 miCalm
11:00 PM64.0 °F23.0 °F11 %29.79 in9.0 miNorth2.2 mphClear
11:00 PM62.6 °F15.8 °F16 %29.92 in4.3 miNW (320°)6.7 mph
11:30 PM62.6 °F19.4 °F19 %29.92 in3.7 miNNW (330°)8.9 mph
Hourly data recorded from ZWSH, located miles away from Kashi, China







STORIES FROM OUR PARTNERS